FW1901 Weather Reports


time (UTC)temp
F
wind
direction
speed
knots
gust
knots
rain 1hr
in
rain 24hr
in
rain mn
in
humidity
%
barometer
mb
20260905224605 81 2 0.0 2.6 0.00 0.05 0.05 81 1010.4
20260905224104 81 2 0.9 2.6 0.01 0.05 0.05 81 1010.4
20260905223604 81 326 0.9 2.6 0.01 0.05 0.05 81 1010.4
20260905223104 80 326 0.9 2.6 0.03 0.05 0.05 81 1010.4
20260905221605 79 325 0.0 6.1 0.05 0.05 0.05 82 1010.7
20260905221105 79 301 0.0 6.1 0.05 0.05 0.05 82 1010.6
20260905220604 79 285 3.5 6.1 0.05 0.05 0.05 82 1010.7
20260905220104 79 292 1.7 4.3 0.05 0.05 0.05 82 1010.5
20260905214604 82 268 0.9 7.8 0.05 0.05 0.05 79 1010.4
20260905214105 84 287 3.5 7.8 0.04 0.04 0.04 76 1010.7
20260905213604 86 29 0.9 12.2 0.04 0.04 0.04 75 1010.8
20260905213105 88 357 4.3 12.2 0.02 0.02 0.02 73 1011.1
20260905211104 90 326 0.9 2.6 0.00 0.00 0.00 62 1010.3
20260905210605 90 356 0.9 2.6 0.00 0.00 0.00 62 1010.3
20260905204604 93 291 2.6 8.7 0.00 0.00 0.00 56 1010.4
20260905204104 94 292 4.3 8.7 0.00 0.00 0.00 55 1010.6
20260905203104 95 288 2.6 7.0 0.00 0.00 0.00 54 1010.6
20260905201604 93 358 0.9 6.1 0.00 0.00 0.00 59 1010.9
20260905200605 92 286 2.6 7.8 0.00 0.00 0.00 57 1010.9
20260905200104 92 285 4.3 7.8 0.00 0.00 0.00 56 1010.8
20260905194604 91 295 1.7 7.0 0.00 0.00 0.00 59 1010.9
20260905194104 91 25 2.6 7.8 0.00 0.00 0.00 58 1011.0
20260905193604 92 283 2.6 7.8 0.00 0.00 0.00 58 1011.2
20260905193104 92 339 2.6 6.1 0.00 0.00 0.00 57 1011.2
20260905191105 92 271 3.5 7.0 0.00 0.00 0.00 57 1011.3
20260905190604 92 203 2.6 6.1 0.00 0.00 0.00 58 1011.4
20260905190104 92 235 2.6 6.1 0.00 0.00 0.00 57 1011.5
20260905184605 91 262 0.9 2.6 0.00 0.00 0.00 58 1011.7
20260905184104 91 276 0.9 2.6 0.00 0.00 0.00 57 1011.9
20260905183605 91 270 1.7 2.6 0.00 0.00 0.00 57 1012.0
20260905183104 90 299 0.9 6.1 0.00 0.00 0.00 59 1012.0
20260905181604 90 212 1.7 5.2 0.00 0.00 0.00 60 1012.1
20260905181105 90 275 1.7 5.2 0.00 0.00 0.00 58 1012.2
20260905180604 90 212 1.7 6.1 0.00 0.00 0.00 58 1012.2
20260905180105 89 298 1.7 7.0 0.00 0.00 0.00 59 1012.3
20260905174605 89 299 2.6 7.8 0.00 0.00 0.00 58 1012.4
20260905174105 89 267 2.6 6.1 0.00 0.00 0.00 59 1012.5
20260905173604 89 225 1.7 5.2 0.00 0.00 0.00 59 1012.5
20260905173104 88 259 0.9 5.2 0.00 0.00 0.00 59 1012.5
20260905171604 89 3 0.0 0.0 0.00 0.00 0.00 56 1012.7
20260905171104 89 3 0.0 0.0 0.00 0.00 0.00 57 1012.8
20260905170604 89 3 0.0 0.0 0.00 0.00 0.00 57 1012.9
20260905164604 88 3 0.0 0.0 0.00 0.00 0.00 57 1013.0
20260905164104 88 3 0.0 0.0 0.00 0.00 0.00 57 1013.0
20260905163604 88 3 0.0 0.0 0.00 0.00 0.00 58 1013.1
20260905163105 87 3 0.0 0.0 0.00 0.00 0.00 58 1013.2
20260905161604 87 3 0.0 0.0 0.00 0.00 0.00 59 1013.2
20260905161104 86 3 0.0 0.0 0.00 0.00 0.00 59 1013.2
20260905160604 86 3 0.0 0.0 0.00 0.00 0.00 58 1013.1
20260905154604 85 3 0.0 0.0 0.00 0.00 0.00 62 1013.1
20260905154104 85 3 0.0 0.0 0.00 0.00 0.00 61 1013.0
20260905151604 83 3 0.0 0.0 0.00 0.00 0.00 63 1013.5
20260905151104 83 3 0.0 0.0 0.00 0.00 0.00 64 1013.4
20260905150604 82 3 0.0 0.0 0.00 0.00 0.00 65 1013.4
20260905150104 82 3 0.0 0.0 0.00 0.00 0.00 65 1013.5
20260905144604 81 3 0.0 0.0 0.00 0.00 0.00 65 1013.4
20260905143604 80 3 0.0 0.0 0.00 0.00 0.00 68 1013.5
20260905143104 79 3 0.0 0.0 0.00 0.00 0.00 69 1013.5
20260905141604 77 3 0.0 0.0 0.00 0.00 0.00 70 1013.5
20260905141103 77 3 0.0 0.0 0.00 0.00 0.00 71 1013.6
20260905140604 77 3 0.0 0.0 0.00 0.00 0.00 72 1013.7
20260905134103 76 3 0.0 0.0 0.00 0.00 0.00 74 1013.6
20260905133604 75 3 0.0 0.0 0.00 0.00 0.00 74 1013.7
20260905133105 75 3 0.0 0.0 0.00 0.00 0.00 74 1013.6
20260905131603 75 3 0.0 0.0 0.00 0.00 0.00 76 1013.7
20260905131103 75 3 0.0 0.0 0.00 0.00 0.00 77 1013.7
20260905130104 74 3 0.0 0.0 0.00 0.00 0.00 76 1013.7
20260905124604 74 3 0.0 0.0 0.00 0.00 0.00 77 1013.8
20260905124104 74 3 0.0 0.0 0.00 0.00 0.00 77 1013.8
20260905123604 74 3 0.0 0.0 0.00 0.00 0.00 77 1013.8
20260905123104 74 3 0.0 0.0 0.00 0.00 0.00 78 1013.8
20260905121604 74 3 0.0 0.0 0.00 0.00 0.00 78 1013.8
20260905121103 74 3 0.0 0.0 0.00 0.00 0.00 78 1013.7
20260905120604 74 3 0.0 0.0 0.00 0.00 0.00 78 1013.6
20260905120104 75 3 0.0 0.0 0.00 0.00 0.00 78 1013.5
20260905114604 75 2 0.0 0.0 0.00 0.00 0.00 80 1013.4
20260905113603 76 3 0.0 0.0 0.00 0.00 0.00 83 1013.2
20260905113104 75 3 0.0 0.0 0.00 0.00 0.00 82 1013.0
20260905111104 75 3 0.0 0.0 0.00 0.00 0.00 82 1012.2
20260905110603 75 3 0.0 0.0 0.00 0.00 0.00 82 1012.2
20260905110104 75 3 0.0 0.0 0.00 0.00 0.00 82 1012.1
20260905104603 75 3 0.0 0.0 0.00 0.00 0.00 82 1012.0
20260905104104 75 3 0.0 0.0 0.00 0.00 0.00 83 1012.0
20260905103603 76 3 0.0 0.0 0.00 0.00 0.00 83 1012.0
20260905103104 76 3 0.0 0.0 0.00 0.00 0.00 83 1012.1
20260905101606 76 3 0.0 0.0 0.00 0.00 0.00 83 1011.9
20260905101106 76 3 0.0 0.0 0.00 0.00 0.00 83 1011.9
20260905100605 76 3 0.0 0.0 0.00 0.00 0.00 83 1011.9
20260905100105 76 3 0.0 0.0 0.00 0.00 0.00 83 1011.8
20260905093605 76 3 0.0 0.0 0.00 0.00 0.00 83 1012.0
20260905093105 76 3 0.0 0.0 0.00 0.00 0.00 82 1012.0
20260905091605 76 3 0.0 0.0 0.00 0.00 0.00 82 1012.0
20260905091105 76 3 0.0 0.0 0.00 0.00 0.00 83 1012.0
20260905090605 76 3 0.0 0.0 0.00 0.00 0.00 83 1012.0
20260905090106 76 3 0.0 0.0 0.00 0.00 0.00 82 1012.0
20260905084105 76 3 0.0 0.0 0.00 0.00 0.00 83 1011.8
20260905083606 76 3 0.0 0.0 0.00 0.00 0.00 83 1011.8
20260905083105 76 3 0.0 0.0 0.00 0.00 0.00 83 1011.8
20260905081605 76 3 0.0 0.0 0.00 0.00 0.00 83 1011.5
20260905081106 76 2 0.0 0.0 0.00 0.00 0.00 83 1011.5
20260905080605 76 297 0.0 0.9 0.00 0.00 0.00 83 1011.4
20260905080105 76 297 0.0 0.9 0.00 0.00 0.00 83 1011.5
20260905074605 77 297 0.0 0.9 0.00 0.00 0.00 82 1011.4
20260905074106 76 297 0.0 1.7 0.00 0.00 0.00 82 1011.3
20260905073605 76 297 0.0 1.7 0.00 0.00 0.00 82 1011.3
20260905073105 76 296 0.0 0.0 0.00 0.00 0.00 82 1011.2
20260905071605 76 296 0.0 0.0 0.00 0.00 0.00 81 1011.3
20260905071105 76 296 0.0 0.0 0.00 0.00 0.00 81 1011.3
20260905070606 76 296 0.0 0.0 0.00 0.00 0.00 81 1011.4
20260905064605 76 296 0.0 0.0 0.00 0.00 0.00 81 1011.5
20260905064105 76 296 0.0 0.0 0.00 0.00 0.00 81 1011.7
20260905063606 76 296 0.0 0.0 0.00 0.00 0.00 81 1011.8
20260905063106 76 296 0.0 0.0 0.00 0.00 0.00 81 1011.9
20260905061105 77 296 0.0 0.0 0.00 0.00 0.00 82 1012.2
20260905060605 77 296 0.0 0.0 0.00 0.00 0.00 82 1012.2
20260905060105 77 296 0.0 0.0 0.00 0.00 0.00 82 1012.1
20260905054605 77 296 0.0 0.0 0.00 0.00 0.00 82 1012.3
20260905054105 77 296 0.0 0.0 0.00 0.00 0.00 82 1012.4
20260905051605 77 296 0.0 0.0 0.00 0.00 0.00 82 1012.5
20260905051106 77 296 0.0 0.0 0.00 0.00 0.00 82 1012.6
20260905050605 77 296 0.0 0.0 0.00 0.00 0.00 82 1012.5
20260905050105 77 296 0.0 0.0 0.00 0.00 0.00 82 1012.4
20260905044605 78 296 0.0 0.0 0.00 0.00 0.00 82 1012.5
20260905044105 78 296 0.0 0.0 0.00 0.00 0.00 82 1012.5
20260905043605 78 296 0.0 0.0 0.00 0.00 0.00 82 1012.5
20260905043105 78 296 0.0 0.0 0.00 0.00 0.00 82 1012.5
20260905041605 78 296 0.0 0.0 0.00 0.00 0.00 82 1012.6
20260905041105 78 296 0.0 0.0 0.00 0.00 0.00 82 1012.7
20260905040605 78 296 0.0 0.0 0.00 0.00 0.00 82 1012.7
20260905040105 78 296 0.0 0.0 0.00 0.00 0.00 82 1012.7
20260905034104 79 296 0.0 0.0 0.00 0.00 0.00 82 1012.7
20260905033605 79 296 0.0 0.0 0.00 0.00 0.00 82 1012.8
20260905033105 79 296 0.0 0.0 0.00 0.00 0.00 82 1012.8
20260905031605 79 296 0.0 0.0 0.00 0.00 0.00 82 1012.7
20260905031106 79 296 0.0 0.0 0.00 0.00 0.00 82 1012.7
20260905030605 80 296 0.0 0.0 0.00 0.00 0.00 82 1012.8
20260905030105 80 296 0.0 0.0 0.00 0.00 0.00 82 1012.7
20260905024105 80 296 0.0 0.0 0.00 0.00 0.00 82 1012.6
20260905023605 80 296 0.0 0.0 0.00 0.00 0.00 82 1012.5
20260905023106 81 296 0.0 0.0 0.00 0.00 0.00 82 1012.6
20260905021605 81 296 0.0 0.0 0.00 0.00 0.00 81 1012.5
20260905021105 81 296 0.0 0.0 0.00 0.00 0.00 81 1012.5
20260905020604 81 296 0.0 0.0 0.00 0.00 0.00 81 1012.5
20260905020105 82 296 0.0 0.0 0.00 0.00 0.00 81 1012.5
20260905014605 82 296 0.0 0.0 0.00 0.00 0.00 80 1012.3
20260905014105 82 296 0.0 0.0 0.00 0.00 0.00 79 1012.3
20260905013605 83 296 0.0 0.0 0.00 0.00 0.00 79 1012.4
20260905013105 83 296 0.0 0.0 0.00 0.00 0.00 79 1012.4
20260905011605 84 296 0.0 0.0 0.00 0.00 0.00 78 1012.3
20260905010605 84 296 0.0 0.0 0.00 0.00 0.00 77 1012.4
20260905010105 85 296 0.0 0.0 0.00 0.00 0.00 76 1012.4
20260905004606 86 296 0.0 0.0 0.00 0.00 0.00 75 1012.2
20260905004104 86 296 0.0 0.0 0.00 0.00 0.00 73 1012.1
20260905003605 87 296 0.0 0.0 0.00 0.00 0.00 72 1012.2
20260905003105 87 296 0.0 0.0 0.00 0.00 0.00 71 1012.1
20260905001104 89 296 0.0 0.0 0.00 0.00 0.00 68 1012.2
20260905000605 89 296 0.0 0.0 0.00 0.00 0.00 68 1012.2
20260904234605 90 296 0.0 0.0 0.00 0.00 0.00 66 1012.3
20260904234105 90 296 0.0 0.0 0.00 0.00 0.00 64 1012.3
20260904233605 91 296 0.0 0.0 0.00 0.00 0.00 64 1012.3
20260904233105 91 296 0.0 0.9 0.00 0.00 0.00 64 1012.3
20260904231605 92 297 1.7 2.6 0.00 0.00 0.00 58 1012.1
20260904230605 92 306 0.9 6.1 0.00 0.00 0.00 56 1012.1
20260904230105 93 294 0.9 6.1 0.00 0.00 0.00 56 1012.0